This is the latest recevied weather packets stored in our database for station/object KB3FKJ. If no packets are shown the sender has not sent any weather packets the latest 1 day(s).
| Time | Temp. | Humidity | Pressure | Rain* | Wind** | Luminosity | Snow |
|---|---|---|---|---|---|---|---|
| 1778011389 | 22.78° C | 47% | 1006.5 hPa | 0 mm | 2.24 m/s, 251° | 120 W/m² | - |
| 1778011085 | 22.78° C | 47% | 1006.5 hPa | 0 mm | 1.79 m/s, 232° | 81 W/m² | - |
| 1778010783 | 23.33° C | 47% | 1006.7 hPa | 0 mm | 1.79 m/s, 245° | 112 W/m² | - |
| 1778010479 | 23.33° C | 46% | 1006.5 hPa | 0 mm | 0.89 m/s, 142° | 94 W/m² | - |
| 1778010176 | 22.78° C | 47% | 1006.4 hPa | 0 mm | 0.89 m/s, 266° | 352 W/m² | - |
| 1778009876 | 22.78° C | 48% | 1006.8 hPa | 0 mm | 0.89 m/s, 241° | 108 W/m² | - |
| 1778009574 | 22.22° C | 51% | 1006.9 hPa | 0 mm | 0.45 m/s, 170° | 228 W/m² | - |
| 1778009272 | 23.33° C | 46% | 1006.9 hPa | 0 mm | 3.13 m/s, 258° | 104 W/m² | - |
| 1778008970 | 23.89° C | 41% | 1006.7 hPa | 0 mm | 2.24 m/s, 234° | 41 W/m² | - |
| 1778008668 | 23.89° C | 40% | 1006.9 hPa | 0 mm | 3.13 m/s, 175° | 31 W/m² | - |
| 1778008366 | 23.89° C | 40% | 1006.7 hPa | 0 mm | 1.79 m/s, 230° | 39 W/m² | - |
| 1778008062 | 23.89° C | 40% | 1006.8 hPa | 0 mm | 1.79 m/s, 256° | 45 W/m² | - |
| 1778007757 | 23.89° C | 41% | 1006.7 hPa | 0 mm | 2.68 m/s, 212° | 44 W/m² | - |
| 1778007454 | 24.44° C | 40% | 1006.8 hPa | 0 mm | 3.13 m/s, 262° | 71 W/m² | - |
| 1778007151 | 24.44° C | 39% | 1006.5 hPa | 0 mm | 3.13 m/s, 210° | 123 W/m² | - |
| 1778006847 | 25° C | 39% | 1006.3 hPa | 0 mm | 2.68 m/s, 277° | 141 W/m² | - |
| 1778006544 | 24.44° C | 39% | 1006.3 hPa | 0 mm | 0.89 m/s, 254° | 228 W/m² | - |
| 1778006240 | 24.44° C | 40% | 1006.4 hPa | 0 mm | 2.24 m/s, 190° | 170 W/m² | - |
| 1778005950 | 24.44° C | 40% | 1006.5 hPa | 0 mm | 1.34 m/s, 174° | 169 W/m² | - |
| 1778005634 | 25° C | 39% | 1006.4 hPa | 0 mm | 1.34 m/s, 179° | 209 W/m² | - |
| 1778005331 | 24.44° C | 40% | 1006.8 hPa | 0 mm | 2.68 m/s, 289° | 218 W/m² | - |
| 1778005027 | 24.44° C | 40% | 1006.7 hPa | 0 mm | 1.79 m/s, 216° | 183 W/m² | - |
| 1778004725 | 25° C | 40% | 1006.8 hPa | 0 mm | 1.34 m/s, 194° | 247 W/m² | - |
| 1778004421 | 25° C | 41% | 1006.7 hPa | 0 mm | 1.79 m/s, 224° | 323 W/m² | - |
| 1778004118 | 25° C | 41% | 1006.9 hPa | 0 mm | 2.24 m/s, 262° | 213 W/m² | - |
* Rain latest hour (hover to see other rain measurements)
** Current wind speed in m/s (hover to see current wind gust speed)